Categorie :
Contrôle au checkpoint Arrivée 21 Km (hors pénalités)
OrdreCoureur [Dossard] Club DptCatOrdre CatHeureTemps cumulé
1Nicolas Miquel [1183] 31500SEH07/01 10:31:331:29:41
2Stephane Cavalca [1211] Portet Athletic Club 31410V1H07/01 10:32:291:30:37
3Jérôme Rannou [1378] 31800SEH07/01 10:32:551:31:03
4Adrien Latestere [1365] Team Foulées Toulouse – Rouffiac 31700SEH07/01 10:36:481:34:56
5Sebastien Capus [1222] Les Mômes 31560SEH07/01 10:37:171:35:25
6Loic Baldet [1098] Sports Nature Lévézou 31400SEH07/01 10:37:591:36:07
7Ludovic Pouilloux [1452] Herbalife H24 31140SEH07/01 10:40:021:38:10
8Arnaud Bellaïla [1293] 31130SEH07/01 10:40:191:38:27
9Jérôme Bernou [1115] Triathlon Toulouse Metropole 31320SEH07/01 10:40:251:38:33
10Benoit Sentost [1352] Afum Team Auterive 31190V1H07/01 10:40:361:38:44
11André Sylla [1056] Satuc 31700SEH07/01 10:41:001:39:08
12Yannick Lizzi [1481] V1H07/01 10:41:381:39:46
13Nicolas Hans [1344] Bon Pied Bon Œil 31750SEH07/01 10:41:481:39:56
14Laurent Parent [1220] Les Fortiches Du Lauragais 31450V1H07/01 10:42:081:40:16
15Marc Olivier Peltier [1471] SEH07/01 10:42:161:40:24
16Adrien Oillic [1372] Tuc Triathlon 31400SEH07/01 10:42:191:40:27
17Johann Thomas [1423] Issy Absolu Raid 31400SEH07/01 10:42:591:41:07
18Pierre Chiron [1008] Cap Trail Gagnac 31 31700SEH07/01 10:43:151:41:23
19Sébastien Perrier [1058] 31320V1H07/01 10:43:241:41:32
20Cyril Ollier [1379] Triathlon Toulouse Métropole 31130SEH07/01 10:43:491:41:57
21Patrick Vial [1414] 31130V2H07/01 10:44:311:42:39
22Cyril Soubie [1398] Juillan Running Club 65290SEH07/01 10:44:331:42:41
23Samir Hijazi [1241] Team I Run 31400SEH07/01 10:44:461:42:54
24Loic Charpentier [1406] So6 De Toulouse 31400SEH07/01 10:45:231:43:31
25Laurent Soccol [1229] Aspf 81300V1H07/01 10:46:071:44:15
26Nicolas Vandewalle [1226] 81140SEH07/01 10:46:271:44:35
27Mathieu Cousinie [1448] 31300SEH07/01 10:46:271:44:35
28Yann Le Bonniec [1422] Captrail Gagnac 31 31620SEH07/01 10:46:321:44:40
29Julien Piquemal [1459] SEH07/01 10:47:161:45:24
30Ludovic Birault [1112] 31500SEH07/01 10:47:181:45:26
31Remi Gasparotto [1093] Cosatrail 31400SEH07/01 10:47:291:45:37
32Kevin Calton [1370] 31530SEH07/01 10:47:391:45:47
33Laurent Larroutis [1017] Sa Montrouge Paris 12 75011V1H07/01 10:47:591:46:07
34Jerome Soubie [1420] 31330SEH07/01 10:48:311:46:39
35Esteban Valcarcel [1155] Triathlon Toulouse Metropole 31470SEH07/01 10:48:421:46:50
36Yoann Mortreuil [1409] 32600SEH07/01 10:49:001:47:08
37Anthony Galtier [1360] Team 12/Rrun La Primaube 12160SEH07/01 10:49:031:47:11
38Franck Wydra [1297] Trail Des Sources De Gasques 82400V2H07/01 10:49:061:47:14
39Emmanuel Labrid [1158] Ca Balma 31130V1H07/01 10:49:081:47:16
40Corentin Cambonie [1325] 31400SEH07/01 10:49:351:47:43
41Aurélien Larvet [1462] SEH07/01 10:49:521:48:00
42Aymerik Joly [1461] SEH07/01 10:50:031:48:11
43Mathieu Minazio [1143] Team Labège Triathlon 31450SEH07/01 10:50:091:48:17
44Maxime Taran [1336] Vtt Coteaux 31 31400V1H07/01 10:52:221:50:30
45Julien Miquel [1439] 81100SEH07/01 10:52:291:50:37
46Enrique Rousseau [1107] Wam 31400SEH07/01 10:52:331:50:41
47Mathieu Chauvin [1390] So6 De Toulouse 31300V1H07/01 10:53:021:51:10
48Bastien Salvatge [1475] ESH07/01 10:53:091:51:17
49Francois Ortiz [1441] Cap Trail Gagnac 31 31150V1H07/01 10:53:201:51:28
50Jean-Noël Malet [1361] S/L Athle 632 Tournefeuille 31170V1H07/01 10:53:331:51:41
51Franck Sabadie [1351] Airbus Running 31150SEH07/01 10:53:341:51:42
52Florian Navarro [1142] 31390SEH07/01 10:53:411:51:49
53Thierry Delvolve [1191] 82200V1H07/01 10:54:071:52:15
54Mickael Guesnerie [1300] Airbus Running 31180V1H07/01 10:54:321:52:40
55Aurelien Turc [1159] 33000 SEH07/01 10:54:351:52:43
56Mathieu Arnal [1368] Absolu Raid 31300SEH07/01 10:55:001:53:08
57Bastien Continsouzas [1133] Sa Toulouse Uc 31000SEH07/01 10:55:191:53:27
58Jordi Perrie [1442] Balma Trail 31140SEH07/01 10:55:451:53:53
59Jeremy Bras [1314] 31240SEH07/01 10:56:051:54:13
60Benoit Constans [1375] Girou Triathlon 31620SEH07/01 10:56:121:54:20
61Pierre Landron [1418] Space Trailers 31500SEH07/01 10:56:271:54:35
62Jean-Marc Serrot [1348] 31650SEH07/01 10:56:321:54:40
63Robyn Ellis [1030] No 31700V1F07/01 10:56:521:55:00
64Yves De Giusti [1304] 31880V1H07/01 10:56:591:55:07
65Laurent Serrot [1349] 31140SEH07/01 10:57:081:55:16
66Florian Scattolini [1137] 31100SEH07/01 10:57:321:55:40
67Thomas Fabre-Barthez [1436] 34500SEH07/01 10:57:571:56:05
68Jean-Luc Cassagnes [1312] 31500V1H07/01 10:58:011:56:09
69Sebastien Marques [1076] Usal Latecoere 31590SEH07/01 10:58:021:56:10
70Maxime Virelaude [1376] Cap Trail Gagnac 31 31150ESH07/01 10:58:111:56:19
71François Caubère [1174] Portet Athletic Club 31830V1H07/01 10:58:501:56:58
72Stéphane Mitri [1180] Team Errea 82000V1H07/01 10:58:551:57:03
73Olivier Berlemont [1463] SEH07/01 10:58:561:57:04
74Louis Mauran [1035] 31170SEH07/01 10:58:591:57:07
75Gregory Lambert [1144] Tlt 31000SEH07/01 10:59:041:57:12
76Nicolas Sylvestre [1238] Mapaero 31200V1H07/01 10:59:141:57:22
77Simon Delaire [1389] Raid Centralesupélec 31400SEH07/01 10:59:161:57:24
78Guillaume Cazeneuve [1275] Zouzou Team 31300V1H07/01 10:59:441:57:52
79Laurent Marquez [1400] Tuc Triathlon 31450V1H07/01 10:59:461:57:54
80Stéphane Gauthier [1429] 31500SEH07/01 10:59:531:58:01
81Gregory Versaille [1202] 31270V1H07/01 11:00:101:58:18
82Lilian Morvan [1413] Aca Auch 32220ESH07/01 11:00:121:58:20
83Eric Astruc [1214] 31150V2H07/01 11:01:091:59:17
84Corinne Degois [1075] 31000V1F07/01 11:01:171:59:25
85Philippe Alleman [1490] V1H07/01 11:01:231:59:31
86Melissa Hourdebaigts [1120] 40360JUF07/01 11:01:391:59:47
87Olivier Courreges [1434] Striathlon 31200V1H07/01 11:01:481:59:56
88Michael Metais [1382] 31200V1H07/01 11:01:501:59:58
89Magali Alquier [1130] Portet Athletic Club 31830V1F07/01 11:01:592:00:07
90Fabien Pons [1165] Ddx 31150V1H07/01 11:02:012:00:09
91Perrine Vernooij [1302] 82000SEF07/01 11:02:072:00:15
92Guillaume Boschini [1396] 31270V1H07/01 11:02:212:00:29
93Marie Helene Bidart [1010] 31000V1F07/01 11:02:252:00:33
94David Gasparotto [1000] 31130V1H07/01 11:02:312:00:39
95Stephane Brabant [1206] Ddx Bruguieres 31790V1H07/01 11:02:322:00:40
96Benjamin Segarra [1388] 31140SEH07/01 11:02:342:00:42
97Jeremy Plumejault [1201] Athle 632 Tournefeuille 31170SEH07/01 11:02:502:00:58
98Paul Mccambridge [1078] Athlé632 31100SEH07/01 11:03:072:01:15
99Francisco Leite [1355] 31320V2H07/01 11:03:162:01:24
100Philippe Grimal [1242] Les Pieds Lurons 31180V1H07/01 11:03:162:01:24
101Emmanuel Assoulant [1301] Les Galopins Du Jacquemart 31620V1H07/01 11:03:192:01:27
102Jérôme Landolt [1341] 31590SEH07/01 11:03:212:01:29
103Michel Fropier [1088] 31820V1H07/01 11:03:392:01:47
104Maxime Pascal [1025] Ddx Bruguières 31150SEH07/01 11:03:432:01:51
105Stephane Carbonne [1296] 31600V1H07/01 11:03:522:02:00
106Alix Paroux [1101] Ca Balma 31460SEF07/01 11:03:542:02:02
107Cyril Geromin [1131] 81390V1H07/01 11:04:222:02:30
108Emilien Baze [1268] Portet Athletic Club 31190SEH07/01 11:04:242:02:32
109Marion Bertoneche [1405] Good Running Toulouse 31300V1F07/01 11:04:332:02:41
110Vincent Merilhou [1061] 31560V1H07/01 11:04:362:02:44
111Mathieu Bénabi [1402] Portet Athletic Club 31100V1H07/01 11:04:592:03:07
112David Hiver [1091] So6 Toulouse 31700SEH07/01 11:05:152:03:23
113Jean-Baptiste Bellet [1443] 31320SEH07/01 11:05:172:03:25
114Joel Lamoulie [1249] Portet Athletic Club 31700V1H07/01 11:05:302:03:38
115Jmarie Olmeda [1327] 31500V2H07/01 11:05:492:03:57
116Sebastien Saunier [1326] Satuc 31100V1H07/01 11:05:542:04:02
117David Fernandez [1244] 31300SEH07/01 11:05:592:04:07
118Floréam Hemery [1148] Sa Toulouse Uc 31000SEH07/01 11:06:002:04:08
119Pascal Avellan [1457] V1H07/01 11:06:022:04:10
120Gérald Augagneur [1045] 31300V1H07/01 11:06:052:04:13
121Anton Manrubia [1054] Les Runners Pujaudranais 32600SEH07/01 11:06:222:04:30
122Frederic Tabacco [1284] 32270V1H07/01 11:06:322:04:40
123Samson Lafranchis [1113] 31300SEH07/01 11:06:332:04:41
124Vincent Lacouture [1026] 31850V1H07/01 11:06:392:04:47
125Stéphane Aussenac [1188] Toulouse Triathlon 31500SEH07/01 11:06:542:05:02
126Sebastien Ross [1177] Athletic Club Coteaux Du Girou 31590V1H07/01 11:07:002:05:08
127Pascal Sauvestre [1330] Toac Athlétisme 31500SEH07/01 11:07:102:05:18
128Christophe Gau [1393] 81100V2H07/01 11:07:122:05:20
129David Mirouze [1294] Satuc 31150V1H07/01 11:07:152:05:23
130Karine Sajus [1350] 09120V1F07/01 11:07:202:05:28
131Patrice De Pra [1002] Asat Tisseo 31100V1H07/01 11:07:452:05:53
132Benoit Hournon [1445] 31620V1H07/01 11:07:532:06:01
133Laurent Daugé [1467] SEH07/01 11:07:562:06:04
134Maria Semerjian [1328] I-Run / La Sportiva 31200V1F07/01 11:08:052:06:13
135Pierre Tayrac [1282] 31180V2H07/01 11:08:062:06:14
136Christophe Pinel [1262] 31200SEH07/01 11:08:072:06:15
137Jérôme Pons [1011] Portet Athletic Club 31860V1H07/01 11:08:132:06:21
138Julie Gimbert [1055] Ac Auterive 31550SEF07/01 11:08:152:06:23
139Cedric Coeugniet [1033] 11320SEH07/01 11:08:392:06:47
140Lucas Busser [1444] 31200SEH07/01 11:08:412:06:49
141Thibaut Sie [1162] 31200SEH07/01 11:08:442:06:52
142Patrice Segur [1231] 81290V1H07/01 11:08:512:06:59
143Julien Couanon [1291] Airbus Running / Bsc 31700V1H07/01 11:08:512:06:59
144Vincent Rouquet [1353] 31620V1H07/01 11:09:032:07:11
145Sébastien Paulat [1478] V1H07/01 11:09:072:07:15
146Gwendal Le Grumelec [1408] Toac Tri 31170V1H07/01 11:09:182:07:26
147Jose Moreno [1125] Bon Pied Bon Oeil 31750V2H07/01 11:09:212:07:29
148Cyril Zarevac [1480] V1H07/01 11:09:482:07:56
149Francois Saillard [1084] Le 140 Trail 31140V1H07/01 11:09:502:07:58
150Yannick Roger [1151] 32450SEH07/01 11:09:572:08:05
151Jean-Luc Vila [1449] 31860V1H07/01 11:10:062:08:14
152Gilles Marques [1196] Portet Athletic Club 31120V1H07/01 11:10:192:08:27
153Patrice Rodriguez [1285] Tis Thales 31120V1H07/01 11:10:272:08:35
154Nicolas Verbrugghe [1114] Tis Thales 31600SEH07/01 11:10:292:08:37
155Najib Laatiaoui [1369] Sheraf 33130SEH07/01 11:10:322:08:40
156Julien Peyre [1036] Mipih 31500V1H07/01 11:10:332:08:41
157Alain Houtekier [1425] 31150V2H07/01 11:10:352:08:43
158Sebastien Vial [1404] Airbus Running 31170V1H07/01 11:10:432:08:51
159Emmanuel Giraud [1410] 31270V2H07/01 11:10:492:08:57
160Frederic Campaner [1317] 1% Équipée Sauvage 32000V1H07/01 11:10:512:08:59
161Sebastiao Tiarks [1141] 31000SEH07/01 11:10:582:09:06
162Dominique Deschamps [1166] Airbus Running 31000V3H07/01 11:10:582:09:06
163Peio Mogabure [1252] 31780SEH07/01 11:11:042:09:12
164Fabien Lombard [1313] 31600V2H07/01 11:11:062:09:14
165Michaël Roche [1373] 31200SEH07/01 11:11:162:09:24
166Stephane Le Guenno [1430] 31400V1H07/01 11:11:192:09:27
167Xavier Avedillo [1239] 31140SEH07/01 11:11:222:09:30
168Jean-Frédéric Fontaine [1380] Athletic Club Auterivain 31190V1H07/01 11:11:232:09:31
169Jean Claude Filipe [1343] Courir À Montech 82100V3H07/01 11:11:242:09:32
170David Dupuy [1431] Cosatrail 31100V1H07/01 11:11:302:09:38
171Serge Dutouron [1332] Team Ferrus 82100V3H07/01 11:11:332:09:41
172Grégory Delabre [1015] Csa Avion 81630V1H07/01 11:11:342:09:42
173David Allard [1468] V1H07/01 11:11:362:09:44
174Stephane Gauthier [1189] Toac Triathlon 31700V1H07/01 11:11:382:09:46
175Vincent Ponsole [1225] 31140V1H07/01 11:11:392:09:47
176Jerome Amanrich [1319] Wazaa 31830V2H07/01 11:11:422:09:50
177Emmanuel Fabas [1485] SEH07/01 11:11:482:09:56
178Sebastien Faure [1071] Airbus Running 31180SEH07/01 11:11:482:09:56
179Thomas Meunier [1411] SEH07/01 11:11:572:10:05
180Fabien Peyronnet [1309] Usa Triathlon 31770SEH07/01 11:11:572:10:05
181Landry Biette [1270] 31660V2H07/01 11:12:072:10:15
182Sebastien Sanchez [1264] 31150SEH07/01 11:12:082:10:16
183Olivier Scherrer [1203] 09100V1H07/01 11:12:222:10:30
184Thierry David [1464] V2H07/01 11:12:242:10:32
185Aurélien Bouvet [1435] 31150V1H07/01 11:12:352:10:43
186Cyril Blachon [1306] 31860V1H07/01 11:12:392:10:47
187Xavier Palanque [1261] 82230V1H07/01 11:12:512:10:59
188Nicolas Vieu [1460] SEH07/01 11:13:052:11:13
189Benjamin Cazaulon [1046] I Run Maiden 31390V1H07/01 11:13:082:11:16
190Jean-Marc Duport [1003] Occitane Running 31300V2H07/01 11:13:092:11:17
191Anthony Lavat [1022] 31330JUH07/01 11:13:122:11:20
192Manuel Reolid [1161] Les Pieds Lurons 31590V2H07/01 11:13:262:11:34
193Mickael Leroy [1085] 31200SEH07/01 11:13:292:11:37
194Pascal Gressier [1250] 31650V2H07/01 11:13:302:11:38
195Luc Blondey [1288] Roc Castanet 31450V2H07/01 11:13:342:11:42
196Franck Mulé [1342] Les Coudous De La Save 32450SEH07/01 11:13:482:11:56
197Dominique Retuerta [1483] V1F07/01 11:13:482:11:56
198Eric Schirmann [1208] Les Pieds Lurons 31240V2H07/01 11:13:562:12:04
199David Parriel [1027] 31150V1H07/01 11:14:012:12:09
200Alexandre Giron [1217] 31650SEH07/01 11:14:032:12:11
201Laurent Vieules [1391] Roc Castanet 31320V2H07/01 11:14:092:12:17
202Benjamin Azemar [1415] 31400SEH07/01 11:14:112:12:19
203Laurent Abadie [1359] 31170V1H07/01 11:14:412:12:49
204Nicolas Bonotto [1399] Aseat Toulouse 31500V1H07/01 11:14:432:12:51
205Romain Houzée [1032] 31620SEH07/01 11:14:522:13:00
206Vincent Mazieres [1316] 31700V1H07/01 11:14:562:13:04
207Dominique Taleb [1299] Club Athletique Caussadais 31000V3H07/01 11:15:032:13:11
208Stephane Guillien [1267] 31700V1H07/01 11:15:052:13:13
209Pierre Paillard [1385] 31200SEH07/01 11:15:062:13:14
210Xavier Descamps [1111] Teamtorr 81500SEH07/01 11:15:072:13:15
211Sebastien Noblet [1090] Portet Athletic Club 31000V1H07/01 11:15:092:13:17
212Charaf Djabir Mirghane [1477] SEH07/01 11:15:122:13:20
213Julien Brus [1057] 31000V1H07/01 11:15:182:13:26
214Soline Charpentier [1006] 31200SEF07/01 11:15:202:13:28
215Julio Valles [1044] Cosatrail Toulousain 31400V3H07/01 11:15:242:13:32
216Sébastien Alazard [1172] Athlé 632 31830V1H07/01 11:15:302:13:38
217Christophe Fontes [1173] Ecla Albi 81000SEH07/01 11:15:302:13:38
218Timothy Chiabo [1218] 65000SEH07/01 11:15:472:13:55
219Sarah Dutouron [1333] Team Ferrus 82100SEF07/01 11:16:052:14:13
220Maxime Jausseme [1094] 31140SEH07/01 11:16:272:14:35
221Francois Barrier [1104] V3H07/01 11:16:322:14:40
222François Romagon [1245] Les Marcassins Du Girou 31620V2H07/01 11:16:472:14:55
223Yann Devin [1181] Union Athlétique Nohicoise 82000V1H07/01 11:16:522:15:00
224Christophe Caron [1029] Trailers Pyrénéens Tranquilles 31470V2H07/01 11:17:132:15:21
225Daniel Viguier [1371] 31470V1H07/01 11:17:232:15:31
226Olivier Gantet [1210] 31170V1H07/01 11:17:242:15:32
227Iwo Slobodzianek [1401] I Run Maiden 31400SEH07/01 11:17:292:15:37
228Denis Martiol [1092] 31200SEH07/01 11:17:362:15:44
229Christophe Vinazza [1337] 31140V1H07/01 11:17:432:15:51
230Emmanuel Conche [1070] Tobesport 31480V1H07/01 11:18:042:16:12
231David Pollack [1265] Athlétic Club Auterivain 31190V1H07/01 11:18:202:16:28
232Vincent Amoros [1219] Airbus Running 31150SEH07/01 11:18:282:16:36
233Pascal Lassalle [1358] Team Raidlight 31270V1H07/01 11:18:302:16:38
234Merry Biau [1347] Triathlon Toulouse Metropole 31400ESH07/01 11:18:592:17:07
235Alexandre Sadler [1164] Tracks Athle Lisle Jourdain 31170V1H07/01 11:19:032:17:11
236Ugo Bonnet [1397] 31300SEH07/01 11:19:202:17:28
237Gilles Fontaine [1437] 31000V2H07/01 11:19:242:17:32
238Eric Bonotto [1407] 31500V1H07/01 11:19:272:17:35
239Frédéric Munier [1305] Portet Athletic Club 31100V1H07/01 11:19:282:17:36
240Olivier Clarimon [1124] 31180V1H07/01 11:19:292:17:37
241Teva Dotte [1386] 31870V1H07/01 11:19:592:18:07
242Hugues De Levezou De Vesins [1433] 31770V2H07/01 11:20:002:18:08
243Frédéric Marie [1040] 31240SEH07/01 11:20:132:18:21
244Mathias Grillet [1427] 31000SEH07/01 11:20:282:18:36
245Cedric Colin [1454] Toulouse Triathlon 31500SEH07/01 11:20:282:18:36
246Claire Guyon [1089] Fftri 31150SEF07/01 11:21:012:19:09
247Jean-Guy Merlin [1451] 31530V2H07/01 11:21:292:19:37
248Florian Foucoin [1339] Lacroix Running Team 31810SEH07/01 11:21:342:19:42
249Jean-Michel Arcidet [1289] 31530V2H07/01 11:21:452:19:53
250Cyril Dechegne [1163] Occitanie Running 31200V1H07/01 11:21:452:19:53
251Xavier Vic [1438] 31000V1H07/01 11:21:512:19:59
252Gilles Laval [1060] 31180V2H07/01 11:21:542:20:02
253Lilian Aué [1233] 31380SEH07/01 11:21:542:20:02
254Patrice Renaudie [1482] V1H07/01 11:22:032:20:11
255Dereck Sentilles [1357] Ferrus 47510SEH07/01 11:22:152:20:23
256Jean-Yves Le Bras [1473] V2H07/01 11:22:202:20:28
257Cyril Dausse [1298] 31780SEH07/01 11:22:222:20:30
258Daniel Bellon [1384] Ca Balma 31000V2H07/01 11:22:292:20:37
259Gregory Julien [1105] Ccv Castelmaurou 31180V1H07/01 11:22:322:20:40
260Sébastien Mena [1476] V1H07/01 11:23:092:21:17
261Pierre Bournet [1307] 31510V1H07/01 11:23:532:22:01
262Eric Vignal [1178] 31620V1H07/01 11:24:132:22:21
263Benoit Delporto [1470] SEH07/01 11:24:152:22:23
264Christophe Vandangeon [1274] Point Trop N'En Faut 31450V2H07/01 11:24:392:22:47
265Damien Van Damme [1118] Ddx Bruguieres 31150V2H07/01 11:24:532:23:01
266Nicolas Robert [1185] 31600SEH07/01 11:25:192:23:27
267David Castella [1362] Bon Pied Bon Oeil 31650V1H07/01 11:25:192:23:27
268Stephane Spiga [1129] Occitanie Running 31100V1H07/01 11:25:212:23:29
269Jean-Christophe Faugeres [1486] V1H07/01 11:25:232:23:31
270Franck Deffore [1331] Toac Athlétisme 31780V1H07/01 11:25:312:23:39
271Etienne Ginsbach [1446] Airbus Running 31200V2H07/01 11:25:312:23:39
272Stephane Daraut [1023] Rieumes 31410V1H07/01 11:25:352:23:43
273Nicolas Dussac [1073] 32600SEH07/01 11:25:392:23:47
274Tony Castillo [1248] Occitanie Running 31200V1H07/01 11:25:442:23:52
275Patrice Pédoussaud [1251] Matomata 31450V2H07/01 11:25:512:23:59
276Joël Gris [1205] 81500V2H07/01 11:25:552:24:03
277Guillaume Barré [1207] 31270SEH07/01 11:26:092:24:17
278Vincent Bennes [1150] I Run Maiden 31320V1H07/01 11:26:112:24:19
279Julien Massip [1377] 31140SEH07/01 11:26:132:24:21
280Didier Albenque [1487] V2H07/01 11:26:152:24:23
281Thomas Abadie [1321] I Run Maiden 31200SEH07/01 11:26:202:24:28
282Céline Scherrer [1204] 09100V1F07/01 11:26:352:24:43
283Nathan Bower [1039] 31300SEH07/01 11:27:012:25:09
284Frederic Bedouch [1479] SEH07/01 11:27:012:25:09
285Paulo Caparicas [1197] Csa 4°Re 11320V2H07/01 11:27:062:25:14
286Benoit Ferron [1303] 31780SEH07/01 11:27:122:25:20
287Arnaud Piquemal [1168] 31100V1H07/01 11:27:152:25:23
288Anne Claire Boursin [1136] Les Pieds Lurons St Jean 31240ESF07/01 11:27:172:25:25
289Eric Rusques [1042] Jogging Varilhes 09120V2H07/01 11:27:542:26:02
290William Mazenq [1149] Bruguieres Velo Club 31140V2H07/01 11:27:562:26:04
291Nicolas Achotegui [1157] 31400SEH07/01 11:28:042:26:12
292Tanguy Thebline [1154] 31140V1H07/01 11:28:132:26:21
293Sylvie Boulestier [1005] Toac Triathlon 31830V1F07/01 11:28:252:26:33
294Xavier Raoul [1126] Toac Triathlon 31530V1H07/01 11:28:282:26:36
295Fabien Audet [1260] 81800SEH07/01 11:28:342:26:42
296Irène Lafon Placette [1043] 81800SEF07/01 11:28:372:26:45
297Julien Gullaud [1024] 31140V1H07/01 11:28:382:26:46
298Maurice Loberot [1215] Les Petons Gragnaguais 31590V2H07/01 11:28:472:26:55
299Jacques Ngo Sieu Hong [1236] 31850V3H07/01 11:28:482:26:56
300Jean-Baptiste Crampes [1426] Les Fortiches Du Lauragais 31450V1H07/01 11:28:532:27:01
301Pascal Louis [1232] Aspf 81700V2H07/01 11:29:162:27:24
302Olivier Rogliano [1139] Merville Trail 31 31330V2H07/01 11:29:302:27:38
303Emilien Jamin [1340] 31170SEH07/01 11:29:382:27:46
304Didier Durand [1374] Foulee Beauzelloise 31700V2H07/01 11:29:552:28:03
305Matthieu Lasne [1412] 31770SEH07/01 11:30:052:28:13
306Pascal Flamin [1472] SEH07/01 11:30:252:28:33
307Thomas Vignaux [1128] Team Icam 09200ESH07/01 11:30:302:28:38
308Christophe Decaix [1028] 31000SEH07/01 11:30:372:28:45
309François Barthet [1488] SEH07/01 11:30:452:28:53
310Jean Ferrari [1338] Les Marcas 31620V2H07/01 11:30:462:28:54
311Claire Serniguet [1146] Les Pieds Lurons 31180V1F07/01 11:30:542:29:02
312Kevin Charrier [1193] 31200SEH07/01 11:31:262:29:34
313Stéphane Causse [1108] 81500V2H07/01 11:31:292:29:37
314Bastien Duez [1109] 82200SEH07/01 11:31:352:29:43
315Kathleen Raynaud [1295] Union Athletique Nohicoise 81700V1F07/01 11:31:412:29:49
316Robin Griffault [1387] 31500SEH07/01 11:31:442:29:52
317Serge Pons [1484] V2H07/01 11:31:452:29:53
318Rémi Fournier [1021] 31780SEH07/01 11:31:522:30:00
319Maryelle Groussolles [1066] Athlé 632 31470V1F07/01 11:32:072:30:15
320Marie Teyssedre [1047] Sam Paris 12 94200SEF07/01 11:32:292:30:37
321Christophe Suinot [1356] Splach Triathlon Isle Jourdain 32600SEH07/01 11:32:442:30:52
322Williams Martin [1110] Veolia Eau 31180V1H07/01 11:32:452:30:53
323Jacky Gasteceau [1255] Courir Fonsegrives V2H07/01 11:32:542:31:02
324François Roubiere [1280] 31180V2H07/01 11:33:182:31:26
325Romain Garbaye [1182] 31120SEH07/01 11:33:192:31:27
326Anne-Marie Hooreman [1281] 31840V2F07/01 11:33:212:31:29
327Jean-Philippe Audy [1450] Cap Trail Gagnac 31 31330V1H07/01 11:33:402:31:48
328Jessica Artus [1230] 31700SEF07/01 11:33:482:31:56
329Maxime Gigout [1345] Db Super - Sayan Bleu 31180SEH07/01 11:34:342:32:42
330Johann Fontebasso [1416] Johannfontebasso 31180SEH07/01 11:34:342:32:42
331Philippe Valencia [1417] 81500V1H07/01 11:34:362:32:44
332Sabrina Deidda [1394] 31600SEF07/01 11:34:392:32:47
333Jean-Philippe Hivert [1263] 31650V1H07/01 11:34:412:32:49
334Christophe Demoustier [1453] Tocats Del Cim 31600SEH07/01 11:34:412:32:49
335Philippe Cazelles [1272] Les Gambettes 31410V2H07/01 11:34:442:32:52
336Philippe Gossard [1059] Airbus Running 31700V2H07/01 11:34:482:32:56
337Olivier Balayre [1256] 47000V1H07/01 11:35:012:33:09
338Nathalie Robert [1269] Les Pieds Lurons St Jean 31180V2F07/01 11:35:042:33:12
339Ludovic Doumagnac [1117] 31140V1H07/01 11:35:072:33:15
340Romain Vallet [1458] SEH07/01 11:35:092:33:17
341Mathieu Royer [1096] Les Bronzés Font Du Trail 82710SEH07/01 11:35:162:33:24
342Jean-Philippe Corand [1364] Endurance Shop Albi 82000SEH07/01 11:35:172:33:25
343Christophe Beuste [1235] Team Judo Castelsarrasin 82000V1H07/01 11:35:322:33:40
344Jean-Luc Monfraix [1466] V2H07/01 11:35:522:34:00
345Cédric Lacroix Lagrandeur [1279] 31330V1H07/01 11:35:542:34:02
346Jérôme Pouil [1392] 31320V1H07/01 11:36:042:34:12
347Djouma Abdou Souffou [1278] 31200V1H07/01 11:36:062:34:14
348Helene Canonge [1237] Airbus Running/Satuc 31100V1F07/01 11:36:102:34:18
349Vincent Garcia [1273] Team Striathlon 31400V1H07/01 11:36:212:34:29
350Pierre Bevillon [1240] Trail Du Cassoulet 31240V1H07/01 11:36:342:34:42
351Gilles Cros [1286] 31620V2H07/01 11:36:392:34:47
352Jean-Michel Gaude [1186] Ibm France 31670V3H07/01 11:36:442:34:52
353Jean Marc Bassi [1097] 31140V1H07/01 11:37:382:35:46
354Stephane Travers [1346] 32120V1H07/01 11:37:382:35:46
355Corentin Blanc [1062] 31830JUH07/01 11:37:472:35:55
356Jean -Francois Escribe [1246] Velocyraptors 31 31400V2H07/01 11:38:072:36:15
357Vincent Pedegert [1469] ESH07/01 11:38:432:36:51
358Alain Combes [1354] 31830V1H07/01 11:38:482:36:56
359Laurent Lascoux [1363] 31130V1H07/01 11:38:562:37:04
360Nicolas Andraud [1049] 31170SEH07/01 11:39:032:37:11
361Christèle Brean [1152] Safran Power Unit 31140V1F07/01 11:39:172:37:25
362David Brean [1153] 31140V1H07/01 11:39:182:37:26
363Eric Pitton [1192] 31620V1H07/01 11:39:342:37:42
364Erwan Philippe [1310] 82800SEH07/01 11:39:342:37:42
365Thierry Clavel [1050] Athlé 632 31170V2H07/01 11:39:362:37:44
366Paul Huet [1290] Ensat 54180ESH07/01 11:40:452:38:53
367Nathalie Bergamo [1223] Aca 32410V1F07/01 11:41:032:39:11
368Julien Royannais [1048] 31200SEH07/01 11:41:042:39:12
369David Bertrand [1067] 31130V1H07/01 11:41:272:39:35
370Ole Kverneland [1424] 31330V1H07/01 11:41:462:39:54
371Philippe Gautrand [1100] 31700V1H07/01 11:41:522:40:00
372Sylvie Gours [1428] Club Alpin Francais Toulouse 31500V3F07/01 11:41:532:40:01
373Audric Leroy [1099] Triathlon Toulouse Métropole 31000SEH07/01 11:42:122:40:20
374Alain Abraham [1199] Club Ibm France 31500V2H07/01 11:42:192:40:27
375Lionel Marque [1277] 32270SEH07/01 11:42:282:40:36
376Jean-Luc Chabosi [1276] 31150V2H07/01 11:42:302:40:38
377Amandine Bernard [1077] 81800SEF07/01 11:42:332:40:41
378Ludovic Devainon [1432] 31140SEH07/01 11:42:372:40:45
379Christophe Mailhos [1083] Splach L Isle Jourdain Triathlon 31530V2H07/01 11:42:532:41:01
380Marco Billottet [1135] 31130V2H07/01 11:43:022:41:10
381Julien Esturgie [1329] Les Petons Gragnaguais 31380SEH07/01 11:43:092:41:17
382David Combarieu [1253] Petons Gragnaguais 31380SEH07/01 11:43:092:41:17
383Jean-Pierre Chataigner [1138] Ddx 31620V2H07/01 11:43:112:41:19
384Flavien Gallot [1447] 31100SEH07/01 11:43:462:41:54
385Nicolas Morin [1179] Union Athletique Nohicoise 31340SEH07/01 11:44:452:42:53
386Philippe Martinez [1079] Union Athletique Nohicoise 82370V2H07/01 11:44:462:42:54
387Anne Soucaret [1190] Les Pieds Lurons 31240V1F07/01 11:45:322:43:40
388Cyril Plas [1216] 31200V1H07/01 11:45:442:43:52
389Patricia Mulé [1419] Les Coudous De La Save 32450V1F07/01 11:47:032:45:11
390Virginie Audart-Noel [1221] Les Runners Pujaudranais 32600V1F07/01 11:47:252:45:33
391Samuel Audart [1052] Les Runners Pujaudranais 32600V1H07/01 11:47:252:45:33
392Alexandra Gaset [1335] 31200V1F07/01 11:47:512:45:59
393Sebastien Pelizzari [1175] Ddx Bruguieres 31150V1H07/01 11:48:222:46:30
394Cécile Battin [1119] Union Athlétique Nohicoise 82370SEF07/01 11:48:412:46:49
395Sebastien Godfroy [1072] Airbus Running 31700V1H07/01 11:49:552:48:03
396Myriam Sutto [1334] Arrats Trail 32490SEF07/01 11:50:322:48:40
397Charles Delierre [1127] Uca 31240V1H07/01 11:50:452:48:53
398Cyril Portanelli [1224] 97400SEH07/01 11:51:082:49:16
399Frederic Zannini [1254] 31300V1H07/01 11:51:152:49:23
400Florence Guéry [1243] 09140V1F07/01 11:51:302:49:38
401Brice Demontrond [1213] 31780V1H07/01 11:51:362:49:44
402Jérôme Cardaillac [1257] 31600V1H07/01 11:52:282:50:36
403Guillaume Saint-Romas [1324] 31300SEH07/01 11:54:152:52:23
404Etienne Rouchard [1200] Ddx Bruguières 31780V2H07/01 11:54:412:52:49
405Xavier Maugeais [1004] 31140V2H07/01 11:55:052:53:13
406Stephane Veyrie [1009] 31140V2H07/01 11:55:082:53:16
407Xavier Galio [1019] 31620SEH07/01 11:55:102:53:18
408Pascale Griffault [1311] 81300V2F07/01 11:55:362:53:44
409Yaneisy Montero [1134] M6P0B6V1F07/01 11:55:512:53:59
410Laurent Vuillermoz [1322] 31140V1H07/01 11:56:302:54:38
411Lauriane Burger [1395] Courir Ariège Pyrénées 31380SEF07/01 11:57:092:55:17
412Sébastien Bohn [1184] Aqualove 31780SEH07/01 11:57:332:55:41
413Marine Blanpain [1320] Ales 34000SEF07/01 11:57:342:55:42
414Claude Fedou [1031] 31180V2H07/01 11:57:372:55:45
415Fabrice Dos Santos [1041] Bressols 82710V1H07/01 11:58:222:56:30
416Patrick Gaudicheau [1176] Team Moulin De Romanou 31750V2H07/01 11:59:352:57:43
417Pascal Blanc [1063] 31830V1H07/01 12:00:362:58:44
418Laurence Hugo [1132] Les Pieds Lurons 31240V2F07/01 12:00:362:58:44
419Sylvie Hourdebaigts [1121] 40360V2F07/01 12:01:563:00:04
420Jp Auguste [1034] Jogging Varilhes 09120V1H07/01 12:01:563:00:04
421Geraldine Alias [1016] Piche Team 31400SEF07/01 12:02:313:00:39
422Rachid Zayani [1170] 31300V1H07/01 12:04:133:02:21
423Angel Garcia Sanchez-Moncayo [1323] Occitanie Running 31200V2H07/01 12:04:293:02:37
424Max Trevisan [1147] Les Gambettes 31140V2H07/01 12:04:303:02:38
425Isabel Caussade [1187] C A . Birac 82000V1F07/01 12:04:333:02:41
426Elsa Perrody [1489] SEF07/01 12:04:443:02:52
427Christophe Bertherat [1465] V1H07/01 12:05:573:04:05
428Carine Miquel [1007] Piche Team 31780V1F07/01 12:06:593:05:07
429Coralie Cruzel [1209] 15 Eme Parallele 15600SEF07/01 12:08:253:06:33
430Maxence Benaben [1403] 31200SEH07/01 12:09:033:07:11
431Nathalie Marty [1283] 81800V1F07/01 12:10:243:08:32
432Jean Baptiste Cazaux [1440] 31470V1H07/01 12:11:513:09:59
433Laurent Fernandez [1315] 31140V1H07/01 12:11:533:10:01
434Eric Ettinger [1271] Les Petons Gragnagais 31780V2H07/01 12:15:173:13:25
435David Barrichon [1474] SEH07/01 12:15:213:13:29
436Aurélie Perlant [1140] 82170SEF07/01 12:16:153:14:23
437Nicolas Bardeau [1234] 82600V1H07/01 12:16:173:14:25
438Elizabeth Ellis [1292] Stade Saint Gaudens 31420V2F07/01 12:17:423:15:50
439Elodie Vignes [1308] 31620SEF07/01 12:28:593:27:07
440Gregorio Magan Ortiz [1194] 82600SEH07/01 12:29:203:27:28
441Francoise Loison [1106] Piche Team 31300V1F07/01 12:29:373:27:45
442Nicolas Valiere [1383] 31200SEH07/01 12:31:433:29:51